Terminal Aerodrome Forecast
Issued by NWS Greer, SC

Home | Current Version | Previous Version | Text Only | Print | Product List | Glossary On
Versions: 1 2 3 4 5 6 7 8 9 10 11 12 13 14 15 16 17 18 19 20 21 22 23 24 25 26 27 28 29 30 31 32 33 34 35 36 37 38 39 40 41
000
FTUS42 KGSP 211741 AAB
TAFCLT
TAF AMD
KCLT 211741Z 2118/2218 07004KT P6SM BKN040
     FM220400 04008KT P6SM -RA OVC015
     FM220700 04008KT P6SM -RA OVC007
     FM220900 03009KT 5SM -RADZ BR OVC006
     FM221600 03007KT 5SM -DZ BR OVC003=

USA.gov is the U.S. government's official web portal to all federal, state and local government web resources and services.